Regional Weather Roundup
Issued by NWS

Home | Current Version | Previous Version | Graphics & Text | Print | Product List | Glossary On
Versions: 1 2 3 4 5 6 7 8 9 10 11 12 13 14 15 16 17 18 19 20 21 22 23 24 25 26 27 28 29 30 31 32 33 34 35 36 37 38 39 40 41 42 43 44 45 46 47 48 49 50
091
ASUS44 KJAN 290810
RWRMS

MISSISSIPPI HOURLY WEATHER ROUNDUP
NATIONAL WEATHER SERVICE JACKSON MS
300 AM CDT TUE JUL 29 2014

NOTE: "FAIR: INDICATES FEW OR NO CLOUDS BELOW 12,000 FEET WITH NO
SIGNIFICANT WEATHER AND/OR OBSTRUCTIONS TO VISIBILITY.

MSZ001>002-007>008-010>013-018>021-025>028-034>036-290900-
NORTHWEST MISSISSIPPI

CITY           SKY/WX    TMP DP  RH WIND       PRES   REMARKS
CLARKSDALE     CLOUDY    70  70 100 CALM      30.04F
CLEVELAND      FAIR      67  67  98 CALM      30.02F
GREENWOOD      CLEAR     65  63  93 CALM      30.02F
GREENVILLE     CLEAR     67  65  93 CALM      30.03S
GRENADA        FAIR      64  63  94 CALM      30.03S
OLIVE BRANCH   PTCLDY    70  66  88 NE9       30.07S
OXFORD         FAIR      66  64  94 CALM      30.06F
TUNICA         MOSUNNY   70  66  88 N5        30.05F
$$

MSZ003>006-009-014>017-022>024-029>033-037>039-290900-
NORTHEAST MISSISSIPPI

CITY           SKY/WX    TMP DP  RH WIND       PRES   REMARKS
BELMONT        FAIR      66  62  87 CALM      30.04R
COLUMBUS AFB   CLEAR     65  63  94 N3        30.01F
CORINTH        FAIR      64  61  88 CALM      30.05R
GOLDN TRIANGLE CLEAR     66  61  82 N6        30.02F
STARKVILLE     FAIR      64  63  94 CALM      30.02S
TUPELO         CLEAR     67  63  87 NE6       30.03S
$$

MSZ040-058-290900-
CENTRAL MISSISSIPPI

CITY           SKY/WX    TMP DP  RH WIND       PRES   REMARKS
JACKSON INTL   PTCLDY    68  65  90 CALM      30.02F
JACKSON HAWKNS PTCLDY    72  63  73 CALM      30.02F
MERIDIAN KEY   CLEAR     66  64  93 CALM      30.01F
MERIDIAN NAS   CLEAR     68  64  87 NW3       30.01F
RAYMOND        FAIR      66  61  82 CALM      30.02F
VICKSBURG      PTCLDY    67  64  90 CALM      30.03S
$$

MSZ059>079-290900-
SOUTH MISSISSIPPI

CITY           SKY/WX    TMP DP  RH WIND       PRES   REMARKS
BROOKHAVEN     FAIR      68  66  94 CALM      30.04F
COLUMBIA       FAIR      70  68  94 CALM      30.00F
HATTIESBURG    CLEAR     73  68  84 CALM      30.01F
MCCOMB         CLEAR     73  66  78 N7        30.01F
NATCHEZ        PTCLDY    70  66  88 CALM      30.04S
PINE BELT      PTCLDY    70  63  78 N3        30.02F
$$

MSZ080>082-290900-
COASTAL MISSISSIPPI

CITY           SKY/WX    TMP DP  RH WIND       PRES   REMARKS
BILOXI         PTCLDY    78  69  73 N6        29.98S
PASCAGOULA     CLEAR     75  70  84 N5        29.98S
GULFPORT       PTCLDY    81  68  64 N8        29.97F
$$



USA.gov is the U.S. government's official web portal to all federal, state and local government web resources and services.